Dewpoint
33 32 35 35 33 34 33 32 27 26 27 28 29 28 26 27 28 29 30 37 38 39 40 40 42 43 43 42 41 41 40 40 40 40 39 39 38 38 38 38 37 37 37 37
29 33 35 31 33 34 34 34 33 32 30 30 30 32 31 30 30 29 29 30 37 39 40 40 41 42 41 40 40 40 40 39 40 39 39 39 39 38 38 37 37 36 37 37
25 34 32 28 31 33 30 33 34 31 32 32 32 31 31 30 30 30 30 31 31 36 40 40 41 41 41 40 39 39 39 39 39 39 39 39 38 38 37 36 36 35 36 36
23 31 21 26 31 32 31 30 32 33 32 32 32 32 33 30 29 29 30 31 31 32 39 40 41 41 40 40 39 39 39 39 39 39 39 38 38 37 36 35 34 35 36 35
23 27 26 22 24 31 30 29 31 31 31 31 30 30 29 35 35 34 35 35 35 33 36 41 41 40 39 39 39 39 39 39 39 39 38 37 36 35 34 33 32 34 34 36
26 24 21 23 24 26 25 21 33 29 29 29 33 26 30 35 36 36 38 38 37 36 35 40 41 40 39 38 38 38 39 39 39 39 38 36 35 35 36 35 34 35 35 36
24 25 26 27 26 29 18 19 35 36 36 37 35 35 35 35 36 38 38 37 37 37 39 39 41 39 39 38 38 39 39 39 39 38 37 35 35 35 35 34 33 33 33 33
26 23 21 29 28 23 29 31 32 35 38 38 37 34 34 36 36 37 37 37 40 39 39 40 40 40 38 38 39 39 39 38 38 37 37 36 34 35 34 33 33 32 32 31
33 30 35 36 32 32 31 30 32 38 40 38 36 35 36 36 35 36 36 38 39 38 38 39 40 39 38 38 38 38 38 37 36 36 36 35 35 34 33 32 31 31 29 28
27 30 31 35 31 31 34 33 33 34 36 38 35 37 36 35 35 35 36 37 38 38 37 37 39 39 39 38 38 37 37 36 36 35 35 36 35 34 33 31 31 30 29 27
25 23 30 32 27 31 35 37 37 35 32 39 40 38 37 39 36 35 35 35 36 37 37 37 37 38 38 38 37 37 36 36 35 36 36 35 34 33 32 31 31 30 29 26
19 24 25 27 26 33 32 35 37 37 35 39 39 38 39 36 35 35 35 35 34 35 36 35 36 36 36 37 37 36 36 36 36 36 35 34 33 33 36 35 35 35 34 28
22 24 27 27 28 31 35 36 38 38 38 38 39 39 40 38 37 38 37 36 35 36 36 36 35 35 36 37 37 37 37 36 36 35 34 33 33 32 31 33 36 36 37 35
33 31 28 25 28 33 36 38 39 37 37 37 38 40 39 38 37 36 36 37 37 36 35 34 35 35 37 38 38 38 38 38 36 35 34 33 33 32 32 32 32 33 36 37
34 32 30 25 31 35 38 40 38 37 36 36 36 37 37 36 35 34 34 34 36 36 36 36 35 35 35 35 35 35 36 36 36 35 34 34 33 32 32 32 32 32 32 35
33 31 31 28 28 32 37 38 38 36 35 35 33 33 33 33 33 32 31 32 34 34 35 35 33 33 34 35 34 34 35 37 36 34 34 34 33 32 32 32 32 32 32 31
32 28 29 27 31 33 35 35 36 37 35 33 31 31 31 32 30 30 30 31 33 33 33 33 33 34 35 35 34 33 33 35 37 34 33 33 33 33 33 32 32 32 32 33
34 34 33 34 35 36 37 36 34 33 32 32 32 32 32 32 31 31 30 31 32 30 29 31 31 34 34 35 35 35 35 35 34 34 34 33 33 33 33 32 32 32 33 33
36 35 35 35 36 37 36 35 34 33 33 35 34 32 29 28 27 29 29 27 27 26 27 28 31 30 30 32 35 35 34 34 34 33 33 35 34 33 32 32 32 32 33 32
37 36 36 34 35 35 34 34 34 33 33 33 28 26 25 25 27 29 28 26 26 28 28 28 28 28 28 29 32 32 33 32 33 33 33 33 32 32 32 33 32 32 32 32
35 35 35 35 34 34 34 35 34 29 25 25 24 23 24 23 26 26 27 27 26 28 28 28 28 28 28 28 28 27 30 30 30 31 31 32 32 32 32 32 32 32 31 31
34 34 35 33 31 24 19 21 23 23 23 22 21 19 19 20 24 26 26 24 25 27 26 25 25 27 27 27 21 24 26 26 27 28 28 29 30 30 30 30 30 31 32 32
30 27 24 22 23 22 19 15 18 19 20 21 20 18 18 19 20 21 23 23 23 24 23 23 24 26 26 22 20 19 19 20 22 22 24 26 26 26 27 28 29 30 31 30
31 30 31 30 25 20 18 16 14 16 18 18 19 20 19 19 19 23 21 22 21 23 22 21 22 24 23 20 18 17 17 18 16 15 19 23 19 20 21 22 23 23 26 27
32 32 31 30 30 29 22 21 19 19 16 16 17 18 19 21 18 20 19 19 21 20 19 20 20 21 20 20 20 20 19 17 15 16 18 17 18 18 20 21 21 22 22 23
31 32 32 32 32 31 31 28 21 17 15 14 15 16 18 20 21 21 19 19 19 20 19 18 18 19 20 19 20 20 19 19 19 19 19 16 15 16 17 18 19 19 20 21
21 28 25 27 27 28 28 28 23 19 18 17 16 15 16 18 20 21 20 18 18 17 17 17 17 18 19 19 19 18 17 17 19 18 14 13 13 13 15 16 15 16 18 19
Lifted_Index
1 1 1 1 1 1 1 1 1 1 1 1 1 1 1 1 2 3 3 4 4 4 4 4 4 4 5 5 5 4 4 4 5 5 5 5 5 5 6 6 6 6 6 7
1 1 1 1 1 1 1 1 1 1 1 1 1 1 1 1 2 3 3 4 4 3 3 4 4 4 4 5 4 4 4 4 5 5 6 5 5 5 6 6 6 7 7 7
1 1 1 1 1 1 1 1 1 1 1 1 1 1 2 2 2 3 3 4 4 4 4 4 4 4 4 4 4 4 4 4 5 5 5 5 5 5 5 6 7 7 7 7
1 1 1 1 1 1 1 1 1 1 1 1 1 2 2 2 3 3 3 4 4 4 4 4 4 4 4 4 4 4 4 4 4 4 4 4 5 5 6 6 7 7 7 7
1 1 1 1 1 1 1 1 1 2 1 1 2 2 2 3 3 3 4 4 4 4 5 4 4 4 4 4 3 3 3 4 4 4 5 5 5 5 6 7 7 7 7 7
1 1 1 0 1 1 1 1 1 1 2 2 2 2 3 3 3 3 4 4 4 4 4 4 4 3 3 3 3 3 3 4 4 5 5 5 5 6 7 7 7 8 8 8
2 1 1 0 1 1 1 1 1 1 1 1 2 2 2 3 3 4 4 4 4 4 4 4 3 3 2 3 3 3 3 4 4 4 5 5 6 6 7 7 7 7 8 8
1 1 1 1 1 1 1 1 1 1 1 1 1 2 2 2 3 4 4 4 4 4 4 3 3 2 2 2 2 3 3 4 4 4 5 5 6 7 7 7 7 7 7 8
1 1 1 1 1 1 1 1 1 1 1 1 1 2 2 2 2 3 3 4 4 4 4 3 2 2 2 2 2 3 3 3 4 4 5 6 6 7 7 7 7 7 7 7
2 1 1 1 1 1 1 2 2 1 1 1 1 1 1 1 2 2 2 3 3 4 4 3 3 2 2 2 3 3 3 3 4 4 5 5 6 6 7 7 7 7 8 8
3 3 3 2 1 1 1 1 2 2 2 2 1 1 1 1 1 2 2 2 2 3 3 3 3 3 3 3 3 3 3 3 3 4 4 4 5 6 7 8 9 9 9 10
4 4 4 4 3 2 1 1 1 2 2 1 1 1 1 1 2 2 2 2 2 2 2 2 2 3 3 3 3 3 3 3 3 3 4 4 4 5 6 8 9 10 11 11
6 6 7 6 5 3 2 1 1 1 1 1 1 1 1 1 2 2 2 2 3 3 2 2 2 3 3 3 3 3 3 3 4 4 4 4 4 5 6 7 8 9 11 11
8 8 8 8 6 5 3 2 1 1 1 1 1 1 1 1 2 2 2 3 4 4 4 4 3 3 4 4 4 3 3 4 4 4 4 4 5 5 5 6 6 7 9 10
9 9 9 8 6 5 3 2 1 1 1 1 1 1 1 1 2 2 3 4 4 5 5 5 5 5 5 5 5 4 4 4 4 5 5 5 5 5 5 5 5 6 7 8
9 9 8 7 6 4 3 2 1 1 1 1 1 1 1 2 2 3 3 4 4 5 5 6 6 6 7 6 6 5 5 5 5 5 5 5 5 5 5 5 5 6 6 7
7 7 7 6 5 4 3 2 2 1 1 1 1 1 2 2 2 3 4 4 4 5 5 6 7 8 8 8 7 6 6 5 5 5 5 5 5 5 5 5 6 6 6 7
7 7 6 5 4 3 3 2 2 2 2 2 2 2 2 2 3 3 4 4 5 5 6 7 8 9 9 9 8 7 7 6 6 6 6 6 6 6 6 6 6 6 6 7
6 6 6 4 3 3 3 2 2 2 2 2 2 2 2 3 3 4 4 5 6 7 8 10 11 11 11 11 10 9 8 7 7 7 8 8 7 7 7 7 7 7 7 7
6 6 5 4 3 3 3 3 3 3 3 3 3 3 4 4 5 6 6 7 8 10 12 13 13 13 13 13 12 11 10 10 9 9 9 9 8 8 8 8 8 8 8 8
5 5 5 5 4 4 4 4 4 4 5 6 6 6 6 7 8 9 9 10 11 13 14 14 14 14 14 14 14 14 13 12 12 11 11 11 10 10 9 9 9 9 9 9
5 5 5 5 5 5 6 6 6 7 7 8 9 9 9 10 11 11 11 12 13 14 14 14 14 15 15 15 15 15 15 14 14 14 13 13 13 12 12 11 11 11 11 11
5 5 5 6 6 6 7 7 7 8 8 9 10 11 11 12 12 12 12 13 13 14 14 14 14 15 15 15 15 15 14 14 14 14 14 14 15 14 14 14 14 14 14 14
5 5 5 5 6 6 6 7 7 7 7 8 8 9 10 11 11 12 12 13 13 14 14 14 14 14 14 14 14 14 14 14 14 14 14 14 15 15 15 15 15 15 15 15
5 5 5 5 5 5 5 6 6 6 6 6 7 8 9 10 11 12 13 13 13 13 13 13 13 13 13 14 14 14 13 13 13 13 14 14 14 15 15 15 15 15 15 15
6 6 6 5 5 5 5 5 5 6 6 6 6 7 8 9 10 11 12 13 13 13 13 12 13 13 14 14 14 14 14 14 14 14 14 14 14 15 15 15 16 16 16 16
7 7 6 6 6 6 6 6 6 5 6 6 6 7 8 8 9 10 11 13 13 13 12 12 13 13 14 14 14 14 14 14 14 14 14 15 15 15 15 15 16 16 16 16